Tracking 29892 objects as of 21-Nov-2024
HD Live streaming from Space Station
objects crossing your sky now

SL-16 DEB

Track SL-16 DEB now!
10-day predictions


NORAD ID: 22403
Int'l Code: 1992-093CU
Perigee: 818.6 km
Apogee: 942.5 km
Inclination: 70.9 °
Period: 102.4 minutes
Semi major axis: 7251 km
RCS: 0.0052 m2 (small)
Launch date: December 25, 1992
Source: Commonwealth of Independent States (former USSR) (CIS)
Launch site: TYURATAM MISSILE AND SPACE COMPLEX (TTMTR)

Note: This is SATELLITE DEBRIS
Your satellite tracking list
Your tracking list is empty




NASA's NSSDC Master Catalog

Two Line Element Set (TLE):
1 22403U 92093CU  24324.46294406  .00001066  00000-0  65827-3 0  9998
2 22403  70.8917 326.8849 0085417 251.4109 234.2964 14.05916835628628
Source of the keplerian elements: AFSPC